KWANGJEOK current weather conditions

sailwx.info

Wind from 330 at 1 knots

Air temperature -4.0° C
Visibility: greater than 5.4 NM
Dewpoint -18.0° C

Last reported at 2014-Dec-21 03:40 UTC.
Time now 2014-Dec-21 04:44 UTC

Location: N 37°48' E 126°58'.
View on Google Maps.

See reports from other nearby stations

  
Tides and Currents Weather Stations Pressure Air Temp Water Temp Dewpoint Dewpoint Depression Visibility Wind Speed Wind Dir Waves Ship Positions
date/time (UTC)wind fromknots sea level pressurealtimeterstation pressurevisibilityair tempwater tempwave heightnotes
2014-Dec-21 03:40 330 1 5.4-4.0
2014-Dec-21 03:30 190 3 5.4-5.0
2014-Dec-21 03:20 230 2 5.4-4.0
2014-Dec-21 03:10 180 3 5.4-5.0
2014-Dec-21 03:00 230 3 5.4-5.0
2014-Dec-21 02:50 210 3 5.4-5.0
2014-Dec-21 02:40 200 2 5.4-5.0
2014-Dec-21 02:30 200 1 5.4-5.0
2014-Dec-21 02:20 070 1 5.4-5.0
2014-Dec-21 02:10 360 2 5.4-5.0
2014-Dec-21 02:00 330 2 5.4-5.0
2014-Dec-21 01:50 320 1 5.4-5.0
2014-Dec-21 01:40 320 1 3.2-6.0 Haze.
2014-Dec-21 01:30 300 1 3.2-6.0 Haze.
2014-Dec-21 01:20 020 1 3.2-7.0 Haze.
2014-Dec-21 01:10 360 1 2.6-7.0 Haze.
2014-Dec-21 01:00 320 1 2.2-8.0 Haze.
2014-Dec-21 00:50 210 1 1.7-9.0 Haze.
2014-Dec-21 00:40 220 2 1.7-9.0 Haze.
2014-Dec-21 00:30 230 1 1.7-9.0 Haze.
2014-Dec-21 00:20 290 1 1.5-10.0 Haze.
2014-Dec-21 00:10 210 1 1.5-11.0 Haze.
2014-Dec-21 00:00 230 1 1.5-12.0 Haze.
2014-Dec-20 23:50 210 3 1.7-13.0 Haze.
2014-Dec-20 23:40 240 1 1.7-12.0 Haze.
2014-Dec-20 23:30 270 1 1.7-12.0 Haze.
2014-Dec-20 23:20 230 1 1.7-13.0 Haze.
2014-Dec-20 23:10 220 2 1.1-13.0 Haze.
2014-Dec-20 23:00 230 1 1.7-13.0 Haze.
2014-Dec-20 22:50 190 3 2.6-13.0 Haze.
2014-Dec-20 22:40 190 3 2.6-13.0 Haze.
2014-Dec-20 22:30 180 3 2.6-13.0 Haze.
2014-Dec-20 22:20 190 3 2.6-13.0 Haze.
2014-Dec-20 22:00 2.6-12.0 Haze.
2014-Dec-20 21:50 340 1 2.6-12.0 Haze.
2014-Dec-20 21:40 190 1 2.6-12.0 Haze.
2014-Dec-20 21:30 280 1 2.6-12.0 Haze.
2014-Dec-20 21:20 280 1 2.6-12.0 Haze.
2014-Dec-20 21:10 310 1 2.6-12.0 Haze.
2014-Dec-20 21:00 280 1 2.2-12.0 Haze.
2014-Dec-20 20:50 2.2-12.0 Haze.
2014-Dec-20 20:40 230 1 1.7-11.0 Haze.
2014-Dec-20 20:30 210 1 1.7-11.0 Haze.
2014-Dec-20 20:20 220 1 2.2-12.0 Haze.
2014-Dec-20 20:10 230 1 1.7-11.0 Haze.
2014-Dec-20 20:00 190 2 1.7-11.0 Haze.
2014-Dec-20 19:50 190 3 2.2-12.0 Haze.
2014-Dec-20 19:40 190 3 2.6-11.0 Haze.
2014-Dec-20 19:30 180 3 2.6-12.0 Haze.
2014-Dec-20 19:20 190 3 2.2-12.0 Haze.
2014-Dec-20 19:10 200 3 2.6-12.0 Haze.
2014-Dec-20 19:00 220 2 5.4-11.0
2014-Dec-20 18:50 150 1 5.4-11.0
2014-Dec-20 18:40 020 1 5.4-11.0
2014-Dec-20 18:30 010 1 5.4-11.0
2014-Dec-20 18:20 5.4-11.0
2014-Dec-20 18:10 010 1 5.4-11.0
2014-Dec-20 18:00 280 1 5.4-10.0
2014-Dec-20 17:50 5.4-10.0
2014-Dec-20 17:40 270 1 5.4-10.0
2014-Dec-20 17:30 200 1 5.4-10.0
2014-Dec-20 17:20 5.4-10.0
2014-Dec-20 17:10 5.4-10.0
2014-Dec-20 17:00 5.4-10.0
2014-Dec-20 16:50 350 1 5.4-10.0
2014-Dec-20 16:40 030 1 5.4-10.0
2014-Dec-20 16:30 5.4-9.0
2014-Dec-20 16:20 210 1 5.4-9.0
2014-Dec-20 16:10 220 2 5.4-9.0
2014-Dec-20 16:00 240 1 5.4-9.0
2014-Dec-20 15:50 200 1 5.4-9.0
2014-Dec-20 15:40 5.4-9.0
2014-Dec-20 15:30 270 1 5.4-9.0
2014-Dec-20 15:20 5.4-9.0
2014-Dec-20 15:10 060 2 5.4-9.0
2014-Dec-20 15:00 110 2 5.4-8.0
2014-Dec-20 14:50 100 2 5.4-9.0
2014-Dec-20 14:40 090 1 5.4-8.0
2014-Dec-20 14:30 110 1 5.4-9.0
2014-Dec-20 14:20 080 2 5.4-8.0
2014-Dec-20 14:10 100 2 5.4-8.0
2014-Dec-20 14:00 100 2 5.4-8.0
2014-Dec-20 13:50 080 1 5.4-8.0
2014-Dec-20 13:40 100 1 5.4-7.0
2014-Dec-20 13:30 100 2 5.4-7.0
2014-Dec-20 13:20 100 2 5.4-7.0
2014-Dec-20 13:10 100 2 5.4-7.0
2014-Dec-20 13:00 100 2 5.4-7.0
2014-Dec-20 12:50 120 1 5.4-6.0
2014-Dec-20 12:40 120 1 5.4-6.0
2014-Dec-20 12:30 260 1 5.4-6.0
2014-Dec-20 12:20 240 1 5.4-6.0
2014-Dec-20 12:10 220 2 5.4-6.0
2014-Dec-20 12:00 020 1 5.4-6.0
2014-Dec-20 11:50 250 2 5.4-6.0
2014-Dec-20 11:40 220 1 5.4-6.0
2014-Dec-20 11:30 120 1 5.4-6.0
2014-Dec-20 11:20 190 2 5.4-6.0
2014-Dec-20 11:10 240 2 5.4-5.0
2014-Dec-20 11:00 200 5 5.4-5.0
2014-Dec-20 10:50 160 4 5.4-5.0
2014-Dec-20 10:40 190 2 5.4-5.0
2014-Dec-20 10:30 110 2 5.4-4.0
2014-Dec-20 10:20 170 3 5.4-4.0
2014-Dec-20 10:10 100 3 5.4-4.0
2014-Dec-20 10:00 120 3 5.4-4.0
2014-Dec-20 09:50 070 2 5.4-4.0
2014-Dec-20 09:40 090 4 5.4-4.0
2014-Dec-20 09:30 090 3 5.4-4.0
2014-Dec-20 09:20 090 2 5.4-4.0
2014-Dec-20 09:10 080 3 5.4-4.0
2014-Dec-20 09:00 110 3 5.4-3.0
2014-Dec-20 08:50 110 3 5.4-3.0
2014-Dec-20 08:40 100 4 5.4-3.0
2014-Dec-20 08:30 100 6 gusting 11 5.4-3.0
2014-Dec-20 08:20 100 4 5.4-3.0
2014-Dec-20 08:10 120 5 5.4-2.0
2014-Dec-20 08:00 130 2 gusting 10 5.4-2.0
2014-Dec-20 07:50 090 3 gusting 14 5.4-2.0
2014-Dec-20 07:40 110 7 gusting 13 5.4-2.0
2014-Dec-20 07:30 100 5 gusting 13 5.4-1.0
2014-Dec-20 07:20 090 6 gusting 12 5.4-1.0
2014-Dec-20 07:10 100 4 gusting 11 5.4-1.0
2014-Dec-20 07:00 100 3 gusting 12 5.4-1.0
2014-Dec-20 06:50 100 3 gusting 11 5.4-1.0
2014-Dec-20 06:40 140 4 gusting 14 5.4-1.0
2014-Dec-20 06:30 090 9 gusting 18 5.4-1.0
2014-Dec-20 06:20 110 5 gusting 16 5.4-1.0
2014-Dec-20 06:10 110 4 gusting 14 5.4-1.0
2014-Dec-20 06:00 160 4 5.4-1.0
2014-Dec-20 05:50 120 3 gusting 12 5.4-0.0
2014-Dec-20 05:40 130 4 gusting 14 5.4-0.0
2014-Dec-20 05:30 140 5 gusting 17 5.4-1.0
2014-Dec-20 05:20 120 6 gusting 11 5.4-1.0
2014-Dec-20 05:10 140 5 gusting 15 5.4-1.0
2014-Dec-20 05:00 100 7 gusting 13 5.4-1.0
2014-Dec-20 04:50 080 5 gusting 15 5.4-1.0
2014-Dec-20 04:40 110 5 gusting 14 5.4-1.0
2014-Dec-20 04:30 120 3 5.4-0.0
2014-Dec-20 04:20 140 2 gusting 13 5.4-0.0
2014-Dec-20 04:10 110 3 gusting 14 5.4-1.0
2014-Dec-20 04:00 100 7 gusting 14 5.4-0.0
2014-Dec-20 03:50 140 3 gusting 14 5.4-1.0
2014-Dec-20 03:40 100 4 gusting 11 5.4-1.0
2014-Dec-20 03:30 040 3 gusting 14 5.4-0.0
2014-Dec-20 03:20 150 3 gusting 13 5.4-0.0
2014-Dec-20 03:10 120 3 gusting 13 5.4-1.0
2014-Dec-20 03:00 100 7 gusting 12 5.4-1.0
2014-Dec-20 02:50 080 7 gusting 13 5.4-1.0
2014-Dec-20 02:40 130 5 gusting 15 5.4-1.0
2014-Dec-20 02:30 100 6 gusting 11 5.4-1.0
2014-Dec-20 02:20 090 8 gusting 15 5.4-1.0
2014-Dec-20 02:10 100 4 gusting 13 5.4-1.0
2014-Dec-20 02:00 140 4 gusting 12 5.4-2.0
2014-Dec-20 01:50 110 4 gusting 11 5.4-2.0
2014-Dec-20 01:40 100 4 gusting 14 5.4-2.0
2014-Dec-20 01:30 120 5 gusting 10 5.4-1.0
2014-Dec-20 01:20 110 3 gusting 15 5.4-2.0
2014-Dec-20 01:10 100 7 gusting 17 5.4-2.0
2014-Dec-20 01:00 100 8 gusting 20 5.4-2.0
2014-Dec-20 00:50 100 7 gusting 12 5.4-1.0
2014-Dec-20 00:40 110 7 gusting 12 5.4-2.0
2014-Dec-20 00:30 100 5 gusting 12 5.4-1.0
2014-Dec-20 00:20 090 3 5.4-1.0
2014-Dec-20 00:10 120 3 gusting 12 4.9-1.0 Haze.
2014-Dec-20 00:00 090 3 gusting 10 4.9-1.0 Haze.
2014-Dec-19 23:50 110 6 gusting 10 4.9-0.0 Haze.
2014-Dec-19 23:40 070 3 gusting 11 4.9-0.0 Haze.
2014-Dec-19 23:30 130 5 gusting 11 3.2-0.0 Haze.
2014-Dec-19 23:20 130 3 3.2-0.0 Haze.
2014-Dec-19 23:10 120 2 gusting 14 3.2-0.0 Haze.
2014-Dec-19 23:00 120 5 gusting 14 2.6-0.0 Haze.
2014-Dec-19 22:50 120 5 gusting 12 2.6-0.0 Haze.
2014-Dec-19 22:40 100 8 gusting 14 2.6 1.0 Haze.
2014-Dec-19 22:30 120 5 gusting 14 2.6 1.0 Haze.
2014-Dec-19 22:20 100 5 gusting 12 2.2 2.0 Haze.
2014-Dec-19 22:10 100 9 gusting 13 2.2 2.0 Haze.
2014-Dec-19 22:00 100 3 gusting 11 2.2 2.0 Haze.
2014-Dec-19 21:50 100 4 gusting 14 2.2 2.0 Haze.
2014-Dec-19 21:40 100 5 gusting 12 1.5 2.0 Mist.
2014-Dec-19 21:30 110 7 gusting 11 1.5 2.0 Mist.
2014-Dec-19 21:20 090 5 gusting 11 1.5 3.0 Mist.
2014-Dec-19 21:10 080 4 0.9 2.0 Mist.
2014-Dec-19 21:00 190 3 0.6 1.0 Mist.
2014-Dec-19 20:50 190 3 0.6 1.0 Light rain showers. Mist.
2014-Dec-19 20:40 190 4 0.6 1.0 Light rain showers. Mist.
2014-Dec-19 20:30 170 5 0.6 1.0 Mist.
2014-Dec-19 20:20 170 4 0.6 1.0 Mist.
2014-Dec-19 20:10 180 4 0.6 1.0 Mist.
2014-Dec-19 20:00 190 3 0.9 1.0 Haze.
2014-Dec-19 19:50 190 3 1.1 2.0 Haze.
2014-Dec-19 19:40 170 3 2.2 2.0 Light rain showers. Mist.
2014-Dec-19 19:30 360 2 2.6 2.0 Light rain showers.
2014-Dec-19 19:20 330 2 3.2 2.0 Haze.
2014-Dec-19 19:10 100 2 3.2 2.0 Light rain showers.
2014-Dec-19 19:00 360 4 3.2 2.0 Light rain.
2014-Dec-19 18:50 330 3 3.2 2.0 Light rain.
2014-Dec-19 18:40 360 2 2.6 2.0 Drizzle.
2014-Dec-19 18:30 260 1 1.5 1.0 Light rain. Mist.
2014-Dec-19 18:20 170 3 1.1 1.0 Light rain. Mist.
2014-Dec-19 18:10 240 1 1.1 1.0 Haze.
2014-Dec-19 18:00 310 2 1.1 1.0 Haze.
2014-Dec-19 17:50 200 2 1.1 1.0 Haze.
2014-Dec-19 17:40 200 1 1.5 1.0 Haze.
2014-Dec-19 17:30 170 6 1.5 1.0 Haze.
2014-Dec-19 17:20 310 2 1.7 1.0 Haze.
2014-Dec-19 17:10 330 5 gusting 11 2.2 1.0 Haze.
2014-Dec-19 17:00 340 4 gusting 12 3.2 1.0 Haze.
2014-Dec-19 16:50 330 7 3.2 1.0 Haze.
2014-Dec-19 16:40 350 5 3.2 1.0 Haze.
2014-Dec-19 16:30 350 6 3.2 1.0 Haze.
2014-Dec-19 16:20 340 5 gusting 11 3.2 1.0 Haze.
2014-Dec-19 16:10 320 8 gusting 12 3.2 1.0 Haze.
2014-Dec-19 16:00 320 5 gusting 11 3.2 1.0 Haze.
2014-Dec-19 15:50 330 6 2.6 1.0 Haze.
2014-Dec-19 15:40 330 5 gusting 11 1.7-0.0 Haze.
2014-Dec-19 15:30 330 6 gusting 12 2.2-0.0 Haze.
2014-Dec-19 15:20 070 3 1.7-0.0 Haze.
2014-Dec-19 15:10 340 1 2.2-0.0 Haze.
2014-Dec-19 15:00 300 2 1.7 1.0 Haze.
2014-Dec-19 14:50 320 3 1.3 1.0 Haze.
2014-Dec-19 14:40 330 4 0.9 1.0 Haze.
2014-Dec-19 14:30 330 5 0.9-0.0 Haze.
2014-Dec-19 14:20 340 5 0.6-0.0 Haze.
2014-Dec-19 14:10 340 5 gusting 13 0.6-0.0 Haze.
2014-Dec-19 14:00 320 5 gusting 13 0.6-0.0 Haze.
2014-Dec-19 13:50 330 7 gusting 13 1.5-0.0 Haze.
2014-Dec-19 13:40 350 8 gusting 12 5.4-0.0
2014-Dec-19 13:30 340 6 5.4-0.0
2014-Dec-19 13:20 340 7 gusting 12 1.7-0.0 Haze.
2014-Dec-19 13:10 340 5 0.9-0.0 Haze.
2014-Dec-19 13:00 330 6 gusting 14 1.7-0.0 Haze.
2014-Dec-19 12:50 340 7 gusting 12 4.9-0.0 Haze.
2014-Dec-19 12:40 340 7 gusting 13 5.4 1.0
2014-Dec-19 12:30 350 7 5.4 1.0
2014-Dec-19 12:20 340 5 gusting 11 5.4 1.0
2014-Dec-19 12:10 340 5 gusting 12 5.4 1.0
2014-Dec-19 12:00 350 7 gusting 11 5.4 1.0
2014-Dec-19 11:50 360 5 5.4 1.0
2014-Dec-19 11:40 340 7 gusting 12 5.4-0.0
2014-Dec-19 11:30 360 4 5.4-0.0
2014-Dec-19 11:20 340 6 5.4-0.0
2014-Dec-19 11:10 340 5 gusting 11 5.4-0.0
2014-Dec-19 11:00 340 6 gusting 11 5.4-0.0
2014-Dec-19 10:50 340 4 gusting 11 5.4-0.0
2014-Dec-19 10:40 350 8 5.4-0.0
2014-Dec-19 10:30 330 6 gusting 11 5.4-0.0
2014-Dec-19 10:20 330 7 5.4-0.0
2014-Dec-19 10:10 340 5 5.4-0.0
2014-Dec-19 10:00 340 7 gusting 12 5.4-0.0
2014-Dec-19 09:50 360 6 5.4-0.0
2014-Dec-19 09:40 340 5 gusting 10 5.4-0.0
2014-Dec-19 09:30 350 2 5.4-0.0
2014-Dec-19 09:20 330 5 5.4-0.0
2014-Dec-19 09:10 340 8 gusting 11 5.4-0.0
2014-Dec-19 09:00 340 6 gusting 11 5.4-0.0
2014-Dec-19 08:50 350 6 5.4-0.0
2014-Dec-19 08:40 330 6 5.4-0.0
2014-Dec-19 08:30 330 6 gusting 11 5.4-0.0
2014-Dec-19 08:20 330 5 gusting 11 5.4-0.0
2014-Dec-19 08:10 340 5 gusting 10 5.4-1.0
2014-Dec-19 08:00 360 7 5.4-1.0
2014-Dec-19 07:50 350 7 gusting 14 5.4-1.0
2014-Dec-19 07:40 340 6 gusting 11 5.4-0.0
2014-Dec-19 07:30 350 6 gusting 12 5.4-1.0
2014-Dec-19 07:20 330 5 gusting 11 5.4-1.0
2014-Dec-19 07:10 010 7 gusting 12 5.4-1.0
2014-Dec-19 07:00 360 7 gusting 12 5.4-1.0
2014-Dec-19 06:50 350 5 5.4-1.0
2014-Dec-19 06:40 360 7 5.4-0.0
2014-Dec-19 06:30 350 6 5.4-0.0
2014-Dec-19 06:20 010 5 gusting 11 5.4-0.0
2014-Dec-19 06:10 350 8 gusting 12 5.4-1.0
2014-Dec-19 06:00 360 5 5.4-1.0
2014-Dec-19 05:50 350 6 5.4-1.0
2014-Dec-19 05:40 350 5 5.4-1.0
2014-Dec-19 05:30 360 6 5.4-1.0
2014-Dec-19 05:20 350 5 5.4-1.0
2014-Dec-19 05:00 340 6 5.4-1.0
2014-Dec-19 04:50 340 6 5.4-1.0
2014-Dec-19 04:40 330 7 gusting 11 5.4-1.0
2014-Dec-19 04:30 350 5 5.4-2.0
2014-Dec-19 04:20 360 7 gusting 11 5.4-2.0
2014-Dec-19 04:10 330 4 5.4-2.0
2014-Dec-19 04:00 330 3 5.4-2.0